Flag for Cameroon Weather past 2 weeks in Bamenda, Cameroon

Now
77 °F

Thunderstorms. Overcast.


Feels Like: 78 °F
Forecast: 63 / 72 °F
Wind: 5 mph from Southwest

Location: Douala Obs.

Current Time: Aug 29, 2014 at 6:44:36 AM

Latest Report: Aug 29, 2014 at 6:00 AM


Visibility: N/A

Pressure: 29.86 "Hg

Humidity: 94%

Dew point: 75 °F

Location of BamendaLocation

Historic Weather in Bamenda — Graph

°F

Bamenda temperature yesterday

Maximum temperature yesterday: 82 °F (at 12:00 PM)
Minimum temperature yesterday: 75 °F (at 3:00 AM)
Average temperature yesterday: 78 °F

Past Weeks' High & Low Weather Summary

 TemperatureHumidityPressure
High86 °F (Aug 24, 2:00 PM)100% (Aug 14, 7:00 AM)30.04 "Hg (Aug 14, 7:00 AM)
Low72 °F (Aug 25, 2:00 AM)66% (Aug 26, 2:00 PM)29.83 "Hg (Aug 24, 4:00 PM)
Average77 °F91%29.93 "Hg
* Reported Aug 14 5:00 AM — Aug 29 5:00 AM, Bamenda, Weather by CustomWeather, © 2014

Note: Actual official high and low records may vary slightly from our data, if they occured in-between our weather recording intervals... More about our weather records

Advertising

Bamenda weather history for previous 24 hours

 ConditionsComfort  
Time TempWeatherWind HumidityBarometerVisibility
5:00 AM
Aug 29
77 °FThunderstorms. Partly cloudy.5 mph94%29.86 "Hg6 mi
4:00 AM77 °FThunderstorms. Overcast.No wind94%29.86 "Hg4 mi
3:00 AM77 °FThunderstorms. Overcast.7 mph94%29.86 "Hg1 mi
2:00 AM77 °FPassing clouds.No wind94%29.86 "HgN/A
1:00 AM79 °FPassing clouds.No wind89%29.89 "HgN/A
12:00 AM79 °FPassing clouds.No wind89%29.89 "HgN/A
11:00 PM
Aug 28
79 °FPassing clouds.No wind89%29.89 "HgN/A
10:00 PM79 °FPassing clouds.No wind89%29.89 "HgN/A
9:00 PM79 °FPassing clouds.5 mph89%29.89 "Hg5 mi
8:00 PM79 °FPassing clouds.5 mph89%29.86 "Hg5 mi
7:00 PM79 °FThunderstorms. Passing clouds.8 mph89%29.83 "Hg5 mi
6:00 PM79 °FThunderstorms. Partly sunny.9 mph89%29.83 "HgN/A
5:00 PM79 °FThunderstorms. Partly sunny.9 mph89%29.83 "HgN/A
4:00 PM81 °FPartly sunny.9 mph84%29.83 "HgN/A
3:00 PM82 °FBroken clouds.7 mph79%29.83 "HgN/A
2:00 PM82 °FBroken clouds.9 mph79%29.86 "HgN/A
1:00 PM82 °FBroken clouds.7 mph79%29.89 "HgN/A
12:00 PM82 °FBroken clouds.7 mph79%29.92 "HgN/A
11:00 AM81 °FThunderstorms. Broken clouds.No wind84%29.92 "HgN/A
10:00 AM79 °FThunderstorms. Broken clouds.No wind94%29.95 "HgN/A
9:00 AM79 °FBroken clouds.No wind89%29.95 "HgN/A
8:00 AM77 °FCloudy.No wind94%29.92 "HgN/A
7:00 AM75 °FBroken clouds.No wind100%29.92 "Hg5 mi
6:00 AM75 °FDrizzle. Mostly cloudy.No wind100%29.92 "Hg2 mi
Weather by CustomWeather, © 2014

See weather overviewHow to use our weather pages